TimeCST,TemperatureF,Dew PointF,Humidity,Sea Level PressureIn,VisibilityMPH,Wind Direction,Wind SpeedMPH,Gust SpeedMPH,PrecipitationIn,Events,Conditions,WindDirDegrees,DateUTC
12:53 AM,57.0,53.1,87,29.99,9.0,NE,4.6,-,N/A,,Overcast,50,2013-01-28 06:53:00
1:53 AM,57.0,53.1,87,29.99,10.0,NE,8.1,-,N/A,,Overcast,40,2013-01-28 07:53:00
2:53 AM,57.0,53.1,87,29.98,10.0,ENE,5.8,-,N/A,,Overcast,70,2013-01-28 08:53:00
3:53 AM,57.0,53.1,87,29.98,10.0,East,3.5,-,N/A,,Mostly Cloudy,80,2013-01-28 09:53:00
4:18 AM,57.2,53.6,88,29.98,9.0,Calm,Calm,-,N/A,,Overcast,0,2013-01-28 10:18:00
4:53 AM,57.0,53.1,87,29.98,9.0,NNE,3.5,-,N/A,,Mostly Cloudy,30,2013-01-28 10:53:00
5:20 AM,57.2,53.6,88,29.98,9.0,NE,3.5,-,N/A,,Overcast,40,2013-01-28 11:20:00
5:53 AM,57.0,54.0,89,29.97,9.0,East,8.1,-,N/A,,Mostly Cloudy,80,2013-01-28 11:53:00
6:31 AM,55.4,53.6,94,29.99,8.0,ENE,3.5,-,N/A,,Mostly Cloudy,60,2013-01-28 12:31:00
6:38 AM,55.4,53.6,94,29.99,8.0,NE,3.5,-,N/A,,Mostly Cloudy,40,2013-01-28 12:38:00
6:53 AM,55.9,54.0,93,29.99,8.0,ENE,3.5,-,N/A,,Mostly Cloudy,60,2013-01-28 12:53:00
7:40 AM,57.2,55.4,94,30.01,7.0,Calm,Calm,-,N/A,,Overcast,0,2013-01-28 13:40:00
7:53 AM,57.9,55.0,90,30.00,6.0,NE,3.5,-,N/A,,Overcast,50,2013-01-28 13:53:00
8:53 AM,62.1,57.0,84,30.01,9.0,Calm,Calm,-,N/A,,Overcast,0,2013-01-28 14:53:00
9:44 AM,71.6,60.8,69,30.02,10.0,SSW,9.2,-,N/A,,Overcast,200,2013-01-28 15:44:00
9:53 AM,72.0,60.1,66,30.01,10.0,SSW,12.7,-,N/A,,Overcast,210,2013-01-28 15:53:00
10:53 AM,73.0,60.1,64,30.01,10.0,SSW,13.8,21.9,N/A,,Overcast,210,2013-01-28 16:53:00
11:53 AM,73.9,60.1,62,29.99,10.0,SSW,16.1,-,N/A,,Overcast,210,2013-01-28 17:53:00
12:53 PM,73.9,60.1,62,29.96,10.0,South,16.1,24.2,N/A,,Overcast,190,2013-01-28 18:53:00
1:53 PM,75.0,60.1,60,29.92,10.0,SSW,11.5,19.6,N/A,,Overcast,210,2013-01-28 19:53:00
2:53 PM,77.0,60.1,56,29.91,10.0,SSW,20.7,26.5,N/A,,Overcast,200,2013-01-28 20:53:00
3:53 PM,75.9,60.1,58,29.89,10.0,South,11.5,24.2,N/A,,Mostly Cloudy,190,2013-01-28 21:53:00
4:53 PM,75.0,60.1,60,29.88,10.0,South,11.5,-,N/A,,Overcast,180,2013-01-28 22:53:00
5:53 PM,73.0,60.1,64,29.88,10.0,SE,5.8,-,N/A,,Overcast,140,2013-01-28 23:53:00
6:53 PM,71.1,60.1,68,29.89,10.0,North,-9999.0,-,N/A,,Overcast,0,2013-01-29 00:53:00
7:53 PM,72.0,60.1,66,29.89,10.0,ESE,4.6,-,N/A,,Overcast,120,2013-01-29 01:53:00
8:53 PM,72.0,61.0,68,29.88,10.0,SE,6.9,-,N/A,,Overcast,130,2013-01-29 02:53:00
9:53 PM,71.1,60.1,68,29.87,10.0,ESE,5.8,-,N/A,,Overcast,120,2013-01-29 03:53:00
10:53 PM,72.0,59.0,64,29.86,10.0,South,9.2,-,N/A,,Overcast,170,2013-01-29 04:53:00
11:53 PM,72.0,59.0,64,29.85,10.0,South,13.8,21.9,N/A,,Overcast,170,2013-01-29 05:53:00